Latest Weather Observations for Tuggeranong

IDN60801

Issued at 4:35 pm EDT Saturday 29 November 2014 (issued every 30 minutes, with the page automatically refreshed every 10 minutes)

About weather observations | Map of weather stations | Latest weather observations for NSW | Other Formats
Station Details ID: 070339 Name: TUGGERANONG (ISABELLA PLAINS) AWS Lat: -35.42 Lon: 149.09 Height: 586.7 m
Data from the previous 72 hours. | See also: Recent months at Tuggeranong
Date/Time
EDT
Temp
°C
App
Temp
°C
Dew
Point
Rel
Hum
%
Delta-T
°C
Wind Press
QNH
hPa
Press
MSL
hPa
Rain
since 9 am
mm
Dir
 
Spd
km/h
Gust
km/h
Spd
kts
Gust
kts
29/04:30pm 28.1 25.0 7.4 27 11.4 WSW 13 20 7 11 1013.6 1011.9 0.0
29/04:00pm 28.1 26.0 8.4 29 11.0 WNW 9 19 5 10 1014.1 1012.3 0.0
29/03:30pm 27.6 24.9 7.5 28 11.1 W 11 19 6 10 1014.7 1013.0 0.0
29/03:00pm 27.3 24.8 8.2 30 10.6 NNW 11 19 6 10 1015.0 1013.3 0.0
29/02:30pm 27.6 24.8 8.5 30 10.7 NNW 13 24 7 13 1015.4 1013.7 0.0
29/02:00pm 27.0 24.5 8.4 31 10.4 NNW 11 20 6 11 1015.8 1014.0 0.0
29/01:30pm 26.5 23.6 8.0 31 10.2 N 13 22 7 12 1016.3 1014.6 0.0
29/01:00pm 26.2 23.3 8.2 32 9.9 N 13 26 7 14 1016.8 1015.1 0.0
29/12:30pm 25.6 23.1 9.8 37 8.9 WNW 13 22 7 12 1017.3 1015.6 0.0
29/12:00pm 24.9 22.9 10.0 39 8.4 NNW 11 20 6 11 1017.8 1016.1 0.0
29/11:30am 23.0 20.4 9.4 42 7.5 N 13 22 7 12 1018.4 1016.7 0.0
29/11:00am 23.0 21.5 10.4 45 7.1 NW 9 15 5 8 1018.9 1017.3 0.0
29/10:30am 21.4 19.6 9.6 47 6.5 N 9 15 5 8 1019.4 1017.7 0.0
29/10:00am 19.6 17.7 9.2 51 5.6 NNE 9 13 5 7 1019.8 1018.1 0.0
29/09:30am 17.9 17.1 11.2 65 3.7 ENE 6 11 3 6 1020.2 1018.5 0.0
29/09:00am 16.2 15.7 10.7 70 3.0 S 4 7 2 4 1020.6 1019.0 0.0
29/08:30am 15.4 14.6 11.0 75 2.4 WSW 6 9 3 5 1020.6 1019.0 0.0
29/08:00am 14.1 14.3 10.7 80 1.8 CALM 0 0 0 0 1020.3 1018.6 0.0
29/07:30am 12.7 12.9 10.6 87 1.1 CALM 0 0 0 0 1020.4 1018.8 0.0
29/07:00am 11.6 11.6 9.9 89 0.9 CALM 0 0 0 0 1020.2 1018.5 0.0
29/06:30am 10.3 10.2 9.4 94 0.5 CALM 0 0 0 0 1020.3 1018.6 0.0
29/06:00am 9.5 9.2 8.7 95 0.4 CALM 0 0 0 0 1020.1 1018.4 0.0
29/05:30am 9.6 9.2 8.4 92 0.6 CALM 0 0 0 0 1020.0 1018.3 0.0
29/05:00am 10.1 9.8 8.7 91 0.7 CALM 0 0 0 0 1019.8 1018.1 0.0
29/04:30am 10.8 10.7 9.4 91 0.7 CALM 0 0 0 0 1019.7 1018.0 0.0
29/04:00am 10.7 10.4 8.6 87 1.1 CALM 0 0 0 0 1019.7 1018.0 0.0
29/03:30am 11.4 11.2 9.1 86 1.2 CALM 0 6 0 3 1019.9 1018.2 0.0
29/03:00am 13.1 12.0 10.1 82 1.6 E 6 9 3 5 1020.1 1018.4 0.0
29/02:30am 13.7 12.4 10.1 79 1.9 ENE 7 9 4 5 1020.2 1018.5 0.0
29/02:00am 14.3 12.8 10.5 78 2.0 NNE 9 13 5 7 1020.2 1018.5 0.0
29/01:30am 14.3 14.4 10.3 77 2.2 CALM 0 6 0 3 1020.6 1019.0 0.0
29/01:00am 14.1 13.0 10.1 77 2.1 E 6 7 3 4 1020.7 1019.1 0.0
29/12:30am 14.6 13.6 10.2 75 2.4 E 6 7 3 4 1020.7 1019.1 0.0
29/12:00am 15.2 14.2 10.4 73 2.6 ENE 6 7 3 4 1020.9 1019.3 0.0
 
Date/Time
EDT
Temp
°C
App
Temp
°C
Dew
Point
Rel
Hum
%
Delta-T
°C
Wind Press
QNH
hPa
Press
MSL
hPa
Rain
since 9 am
mm
Dir
 
Spd
km/h
Gust
km/h
Spd
kts
Gust
kts
28/11:30pm 15.9 14.4 10.4 70 3.0 ENE 9 13 5 7 1020.9 1019.3 0.0
28/11:00pm 16.3 15.2 10.6 69 3.1 E 7 11 4 6 1021.1 1019.4 0.0
28/10:30pm 17.0 15.9 10.8 67 3.4 E 7 11 4 6 1021.1 1019.4 0.0
28/10:00pm 17.7 16.3 11.0 65 3.7 SE 9 13 5 7 1020.6 1019.0 0.0
28/09:30pm 18.6 16.9 11.2 62 4.1 ESE 11 20 6 11 1019.8 1018.1 0.0
28/09:00pm 19.5 17.1 11.3 59 4.6 E 15 26 8 14 1018.9 1017.3 0.0
28/08:30pm 20.5 17.3 11.4 56 5.2 E 19 28 10 15 1018.7 1017.0 0.0
28/08:00pm 21.9 18.6 11.0 50 6.2 E 19 30 10 16 1018.4 1016.7 0.0
28/07:30pm 24.7 22.6 6.0 30 9.9 N 6 9 3 5 1017.9 1016.2 0.0
28/07:00pm 25.6 23.0 6.3 29 10.3 N 9 15 5 8 1017.7 1016.0 0.0
28/06:30pm 26.1 23.2 6.7 29 10.4 NNW 11 20 6 11 1017.5 1015.8 0.0
28/06:00pm 26.1 23.6 6.7 29 10.4 NW 9 19 5 10 1017.5 1015.8 0.0
28/05:30pm 26.1 25.2 7.7 31 10.1 E 2 7 1 4 1017.7 1016.0 0.0
28/05:00pm 25.5 22.6 6.7 30 10.1 NW 11 15 6 8 1018.0 1016.3 0.0
28/04:30pm 26.5 24.0 8.0 31 10.2 NNW 11 19 6 10 1018.3 1016.6 0.0
28/04:00pm 26.1 24.5 8.1 32 9.9 E 6 11 3 6 1018.5 1016.8 0.0
28/03:30pm 25.5 22.7 7.1 31 9.9 WNW 11 17 6 9 1018.9 1017.3 0.0
28/03:00pm 25.6 22.9 7.2 31 9.9 N 11 22 6 12 1019.4 1017.7 0.0
28/02:30pm 24.8 21.9 6.5 31 9.7 N 11 19 6 10 1019.9 1018.2 0.0
28/02:00pm 23.8 21.4 7.0 34 9.0 NW 9 19 5 10 1020.3 1018.6 0.0
28/01:30pm 23.9 21.8 8.3 37 8.5 N 9 19 5 10 1020.9 1019.3 0.0
28/01:00pm 22.4 20.1 7.4 38 8.0 NW 9 17 5 9 1021.6 1019.9 0.0
28/12:30pm 21.5 18.8 7.3 40 7.5 NNW 11 19 6 10 1022.2 1020.6 0.0
28/12:00pm 20.9 18.2 7.2 41 7.2 NW 11 20 6 11 1022.5 1020.9 0.0
28/11:30am 19.4 17.0 6.8 44 6.5 N 9 17 5 9 1023.2 1021.5 0.0
28/11:00am 18.5 16.2 7.3 48 5.8 N 9 15 5 8 1023.6 1022.0 0.0
28/10:30am 18.0 15.9 8.3 53 5.1 N 9 20 5 11 1023.9 1022.3 0.0
28/10:00am 16.3 13.2 7.3 55 4.6 ENE 13 19 7 10 1024.0 1022.4 0.0
28/09:30am 15.9 13.3 7.9 59 4.1 N 11 17 6 9 1024.2 1022.6 0.0
28/09:00am 15.5 13.2 7.5 59 4.1 ENE 9 15 5 8 1024.4 1022.8 0.0
28/08:30am 15.4 12.7 7.2 58 4.2 ENE 11 15 6 8 1024.4 1022.8 0.0
28/08:00am 14.8 12.3 6.6 58 4.1 E 9 13 5 7 1024.4 1022.8 0.0
28/07:30am 14.6 13.6 7.4 62 3.7 E 2 7 1 4 1024.1 1022.5 0.0
28/07:00am 12.7 10.7 7.0 68 2.8 E 7 9 4 5 1024.0 1022.4 0.0
28/06:30am 11.4 9.5 6.9 74 2.2 E 6 7 3 4 1023.7 1022.1 0.0
28/06:00am 10.2 8.1 6.7 79 1.7 ENE 7 9 4 5 1023.4 1021.8 0.0
28/05:30am 10.4 7.9 6.7 78 1.8 E 9 11 5 6 1023.2 1021.5 0.0
28/05:00am 10.6 8.5 6.7 77 1.9 ESE 7 9 4 5 1023.2 1021.5 0.0
28/04:30am 11.2 9.3 6.7 74 2.2 ENE 6 7 3 4 1023.0 1021.3 0.0
28/04:00am 12.1 10.0 6.8 70 2.6 ENE 7 11 4 6 1023.1 1021.4 0.0
28/03:30am 12.9 10.0 6.7 66 3.1 ESE 11 17 6 9 1023.2 1021.5 0.0
28/03:00am 13.4 11.1 7.6 68 2.9 E 9 11 5 6 1023.4 1021.8 0.0
28/02:30am 13.3 10.7 7.7 69 2.8 E 11 15 6 8 1023.8 1022.2 0.0
28/02:00am 13.4 10.8 7.8 69 2.8 E 11 17 6 9 1024.0 1022.4 0.0
28/01:30am 13.4 10.4 7.8 69 2.8 E 13 17 7 9 1024.0 1022.4 0.0
28/01:00am 13.4 11.0 8.5 72 2.5 ENE 11 15 6 8 1024.3 1022.7 0.0
28/12:30am 13.4 11.0 8.7 73 2.4 ENE 11 19 6 10 1024.6 1023.0 0.0
28/12:00am 13.4 10.7 8.9 74 2.3 E 13 20 7 11 1024.6 1023.0 0.0
 
Date/Time
EDT
Temp
°C
App
Temp
°C
Dew
Point
Rel
Hum
%
Delta-T
°C
Wind Press
QNH
hPa
Press
MSL
hPa
Rain
since 9 am
mm
Dir
 
Spd
km/h
Gust
km/h
Spd
kts
Gust
kts
27/11:30pm 13.6 11.0 9.5 76 2.2 E 13 19 7 10 1024.8 1023.1 0.0
27/11:00pm 13.6 10.2 9.3 75 2.2 E 17 24 9 13 1025.0 1023.4 0.0
27/10:30pm 13.8 10.9 9.5 75 2.3 E 15 22 8 12 1024.9 1023.2 0.0
27/10:00pm 13.9 11.0 9.5 75 2.3 ENE 15 22 8 12 1024.9 1023.2 0.0
27/09:30pm 14.0 10.7 9.6 75 2.3 E 17 24 9 13 1024.3 1022.7 0.0
27/09:00pm 14.2 10.6 10.0 76 2.2 ENE 19 32 10 17 1024.1 1022.5 0.0
27/08:30pm 14.5 11.0 10.1 75 2.4 E 19 28 10 15 1023.7 1022.1 0.0
27/08:00pm 15.2 12.5 10.4 73 2.6 E 15 24 8 13 1023.4 1021.8 0.0
27/07:30pm 16.0 13.0 10.5 70 3.0 ENE 17 24 9 13 1022.7 1021.1 0.0
27/07:00pm 17.0 13.7 10.8 67 3.4 E 19 32 10 17 1022.0 1020.4 0.0
27/06:30pm 17.8 13.5 10.9 64 3.8 E 24 39 13 21 1021.4 1019.7 0.0
27/06:00pm 19.2 14.7 11.3 60 4.4 E 26 39 14 21 1020.5 1018.9 0.0
27/05:30pm 21.6 18.0 10.7 50 6.1 ENE 20 33 11 18 1020.0 1018.3 0.0
27/05:00pm 23.3 19.0 7.8 37 8.4 E 20 32 11 17 1019.6 1017.9 0.0
27/04:30pm 24.3 21.1 7.0 33 9.3 NNE 13 24 7 13 1019.6 1017.9 0.0
27/04:00pm 23.5 20.3 6.7 34 8.9 ENE 13 22 7 12 1019.8 1018.1 0.0
27/03:30pm 24.6 22.0 7.7 34 9.2 N 11 19 6 10 1020.0 1018.3 0.0
27/03:00pm 23.5 20.8 7.2 35 8.7 ENE 11 26 6 14 1020.2 1018.5 0.0
27/02:30pm 24.5 22.2 7.6 34 9.2 SW 9 15 5 8 1020.5 1018.9 0.0
27/02:00pm 22.6 19.7 8.0 39 7.9 ENE 13 22 7 12 1020.8 1019.2 0.0
27/01:30pm 23.3 20.7 7.8 37 8.4 NNW 11 19 6 10 1021.1 1019.4 0.0
27/01:00pm 22.0 19.1 8.2 41 7.4 N 13 22 7 12 1021.4 1019.7 0.0
27/12:30pm 21.3 19.7 8.6 44 6.9 NE 7 13 4 7 1021.7 1020.0 0.0
27/12:00pm 20.8 18.9 9.1 47 6.4 WNW 9 17 5 9 1022.0 1020.4 0.0
27/11:30am 20.1 18.3 9.4 50 5.8 N 9 15 5 8 1022.3 1020.7 0.0
27/11:00am 18.2 16.4 9.5 57 4.7 NW 9 17 5 9 1022.7 1021.1 0.0
27/10:30am 17.9 15.8 9.8 59 4.4 N 11 17 6 9 1022.9 1021.2 0.0
27/10:00am 18.7 16.9 9.5 55 5.0 E 9 15 5 8 1023.1 1021.4 0.0
27/09:30am 17.8 16.0 9.4 58 4.5 ESE 9 15 5 8 1023.1 1021.4 0.0
27/09:00am 16.9 14.9 10.3 65 3.6 ENE 11 19 6 10 1023.3 1021.6 0.0
27/08:30am 15.3 13.1 10.7 74 2.5 NNE 13 19 7 10 1023.3 1021.6 0.0
27/08:00am 15.4 14.5 10.8 74 2.5 SSE 6 9 3 5 1023.1 1021.4 0.0
27/07:30am 15.0 14.0 10.2 73 2.6 S 6 9 3 5 1022.6 1021.0 0.0
27/07:00am 14.9 13.8 10.5 75 2.4 SSE 7 9 4 5 1022.4 1020.8 0.0
27/06:30am 14.5 13.4 10.5 77 2.2 SSE 7 9 4 5 1022.2 1020.6 0.0
27/06:00am 14.4 13.4 10.4 77 2.2 SSE 6 7 3 4 1022.0 1020.4 0.0
27/05:30am 14.2 13.1 10.8 80 1.8 SE 7 9 4 5 1021.7 1020.0 0.0
27/05:00am 14.5 12.5 10.3 76 2.3 SE 11 15 6 8 1021.4 1019.7 0.0
27/04:30am 14.8 13.3 10.4 75 2.4 ESE 9 15 5 8 1021.1 1019.4 0.0
27/04:00am 14.8 12.9 10.4 75 2.4 E 11 19 6 10 1020.6 1019.0 0.0
27/03:30am 14.8 12.9 10.6 76 2.3 E 11 17 6 9 1020.7 1019.1 0.0
27/03:00am 14.7 12.4 10.5 76 2.3 E 13 20 7 11 1020.8 1019.2 0.0
27/02:30am 14.9 13.0 10.5 75 2.4 E 11 19 6 10 1020.8 1019.2 0.0
27/02:00am 15.1 13.2 10.5 74 2.5 E 11 17 6 9 1020.6 1019.0 0.0
27/01:30am 15.4 13.1 10.6 73 2.6 E 13 20 7 11 1020.7 1019.1 0.0
27/01:00am 15.6 13.8 11.0 74 2.5 E 11 17 6 9 1021.1 1019.4 0.0
27/12:30am 15.8 14.8 11.0 73 2.6 E 7 11 4 6 1021.1 1019.4 0.0
27/12:00am 16.1 14.4 11.3 73 2.7 E 11 17 6 9 1021.3 1019.6 0.0
 
Date/Time
EDT
Temp
°C
App
Temp
°C
Dew
Point
Rel
Hum
%
Delta-T
°C
Wind Press
QNH
hPa
Press
MSL
hPa
Rain
since 9 am
mm
Dir
 
Spd
km/h
Gust
km/h
Spd
kts
Gust
kts
26/11:30pm 16.2 14.9 11.4 73 2.7 E 9 13 5 7 1021.4 1019.7 0.0
26/11:00pm 16.2 13.8 11.4 73 2.7 E 15 20 8 11 1021.4 1019.7 0.0
26/10:30pm 16.2 14.2 11.6 74 2.6 E 13 20 7 11 1021.4 1019.7 0.0
26/10:00pm 16.3 14.7 11.5 73 2.7 ESE 11 17 6 9 1021.1 1019.4 0.0
26/09:30pm 16.5 14.5 11.4 72 2.8 E 13 19 7 10 1020.8 1019.2 0.0
26/09:00pm 16.7 14.6 11.2 70 3.0 E 13 20 7 11 1020.4 1018.8 0.0
26/08:30pm 17.0 14.4 10.6 66 3.5 E 15 24 8 13 1020.0 1018.3 0.0
26/08:00pm 17.7 15.1 10.8 64 3.8 E 15 22 8 12 1019.3 1017.6 0.0
26/07:30pm 18.9 15.4 11.0 60 4.4 E 20 30 11 16 1018.2 1016.5 0.0
26/07:00pm 20.2 15.7 11.4 57 5.0 ENE 26 39 14 21 1017.3 1015.6 0.0
26/06:30pm 22.2 17.3 11.3 50 6.2 E 28 39 15 21 1016.6 1014.9 0.0
26/06:00pm 25.1 20.6 6.8 31 9.8 ENE 20 30 11 16 1015.3 1013.6 0.0
26/05:30pm 24.4 21.0 5.7 30 9.8 E 13 19 7 10 1015.3 1013.6 0.0
26/05:00pm 25.5 22.6 6.7 30 10.1 N 11 17 6 9 1015.2 1013.5 0.0

Other Formats:

Comma delimited format used in spreadsheet applications
http://www.bom.gov.au/fwo/IDN60801/IDN60801.94925.axf

JavaScript Object Notation format (JSON) in row-major order
http://www.bom.gov.au/fwo/IDN60801/IDN60801.94925.json